TimeCST,TemperatureF,Dew PointF,Humidity,Sea Level PressureIn,VisibilityMPH,Wind Direction,Wind SpeedMPH,Gust SpeedMPH,PrecipitationIn,Events,Conditions,WindDirDegrees,DateUTC
12:15 AM,37.4,32.0,81,29.73,10.0,West,13.8,20.7,N/A,,Clear,260,2012-12-04 06:15:00
12:35 AM,37.4,32.0,81,29.73,10.0,WSW,15.0,-,N/A,,Clear,250,2012-12-04 06:35:00
12:55 AM,37.4,32.0,81,29.73,10.0,WSW,16.1,21.9,N/A,,Clear,250,2012-12-04 06:55:00
1:15 AM,37.4,32.0,81,29.74,10.0,WSW,12.7,19.6,N/A,,Clear,250,2012-12-04 07:15:00
1:35 AM,35.6,32.0,87,29.74,10.0,WSW,12.7,-,N/A,,Clear,250,2012-12-04 07:35:00
1:55 AM,35.6,32.0,87,29.75,10.0,WSW,11.5,17.3,N/A,,Clear,240,2012-12-04 07:55:00
2:15 AM,35.6,32.0,87,29.76,10.0,WSW,11.5,-,N/A,,Clear,250,2012-12-04 08:15:00
2:35 AM,35.6,32.0,87,29.76,10.0,WSW,13.8,18.4,N/A,,Clear,250,2012-12-04 08:35:00
2:55 AM,35.6,32.0,87,29.77,10.0,WSW,15.0,19.6,N/A,,Clear,250,2012-12-04 08:55:00
3:15 AM,35.6,32.0,87,29.77,10.0,West,11.5,-,N/A,,Clear,260,2012-12-04 09:15:00
3:35 AM,35.6,30.2,81,29.77,10.0,West,11.5,-,N/A,,Clear,260,2012-12-04 09:35:00
3:55 AM,35.6,30.2,81,29.77,10.0,West,13.8,-,N/A,,Clear,270,2012-12-04 09:55:00
4:15 AM,35.6,28.4,75,29.78,10.0,West,11.5,19.6,N/A,,Clear,270,2012-12-04 10:15:00
4:35 AM,33.8,28.4,81,29.79,10.0,West,10.4,-,N/A,,Clear,260,2012-12-04 10:35:00
4:55 AM,33.8,28.4,81,29.79,10.0,West,11.5,16.1,N/A,,Clear,270,2012-12-04 10:55:00
5:15 AM,33.8,28.4,81,29.79,10.0,West,8.1,-,N/A,,Clear,260,2012-12-04 11:15:00
5:35 AM,33.8,28.4,81,29.79,10.0,West,10.4,17.3,N/A,,Clear,270,2012-12-04 11:35:00
5:55 AM,33.8,28.4,81,29.81,10.0,West,13.8,18.4,N/A,,Clear,280,2012-12-04 11:55:00
6:15 AM,32.0,26.6,80,29.82,10.0,West,13.8,21.9,N/A,,Clear,270,2012-12-04 12:15:00
6:35 AM,32.0,23.0,69,29.83,10.0,WNW,11.5,17.3,N/A,,Clear,290,2012-12-04 12:35:00
6:55 AM,32.0,23.0,69,29.85,10.0,West,9.2,17.3,N/A,,Clear,280,2012-12-04 12:55:00
7:15 AM,32.0,23.0,69,29.86,10.0,West,9.2,12.7,N/A,,Clear,270,2012-12-04 13:15:00
7:35 AM,32.0,21.2,64,29.87,10.0,West,11.5,17.3,N/A,,Clear,280,2012-12-04 13:35:00
7:55 AM,32.0,21.2,64,29.87,10.0,West,8.1,18.4,N/A,,Clear,280,2012-12-04 13:55:00
8:15 AM,32.0,21.2,64,29.88,10.0,West,12.7,21.9,N/A,,Clear,270,2012-12-04 14:15:00
8:35 AM,32.0,21.2,64,29.88,10.0,West,13.8,19.6,N/A,,Clear,260,2012-12-04 14:35:00
8:55 AM,32.0,19.4,60,29.89,10.0,West,12.7,23.0,N/A,,Clear,280,2012-12-04 14:55:00
9:15 AM,32.0,21.2,64,29.90,10.0,WNW,11.5,26.5,N/A,,Clear,300,2012-12-04 15:15:00
9:35 AM,32.0,19.4,60,29.91,10.0,WNW,17.3,20.7,N/A,,Clear,300,2012-12-04 15:35:00
9:55 AM,32.0,21.2,64,29.91,10.0,West,16.1,21.9,N/A,,Mostly Cloudy,270,2012-12-04 15:55:00
10:15 AM,32.0,21.2,64,29.92,10.0,West,11.5,-,N/A,,Mostly Cloudy,280,2012-12-04 16:15:00
10:35 AM,32.0,19.4,60,29.92,10.0,WNW,15.0,24.2,N/A,,Scattered Clouds,290,2012-12-04 16:35:00
10:55 AM,32.0,19.4,60,29.93,10.0,West,13.8,20.7,N/A,,Clear,270,2012-12-04 16:55:00
11:15 AM,32.0,17.6,55,29.93,10.0,West,18.4,25.3,N/A,,Scattered Clouds,270,2012-12-04 17:15:00
11:35 AM,32.0,17.6,55,29.93,10.0,WNW,15.0,21.9,N/A,,Scattered Clouds,290,2012-12-04 17:35:00
11:55 AM,32.0,17.6,55,29.93,10.0,WNW,18.4,24.2,N/A,,Scattered Clouds,290,2012-12-04 17:55:00
12:15 PM,30.2,15.8,55,29.95,10.0,West,18.4,27.6,N/A,,Clear,280,2012-12-04 18:15:00
12:35 PM,30.2,12.2,47,29.96,10.0,NW,17.3,26.5,N/A,,Clear,310,2012-12-04 18:35:00
12:55 PM,32.0,14.0,48,29.97,10.0,NW,15.0,20.7,N/A,,Clear,310,2012-12-04 18:55:00
1:15 PM,30.2,12.2,47,29.97,10.0,WNW,16.1,25.3,N/A,,Clear,290,2012-12-04 19:15:00
1:35 PM,30.2,8.6,40,29.99,10.0,West,16.1,26.5,N/A,,Clear,280,2012-12-04 19:35:00
1:55 PM,30.2,8.6,40,29.99,10.0,WNW,20.7,32.2,N/A,,Clear,290,2012-12-04 19:55:00
2:15 PM,30.2,8.6,40,30.00,10.0,WNW,18.4,25.3,N/A,,Clear,300,2012-12-04 20:15:00
2:35 PM,28.4,8.6,43,30.01,10.0,NW,15.0,20.7,N/A,,Clear,310,2012-12-04 20:35:00
2:55 PM,28.4,8.6,43,30.02,10.0,WNW,17.3,23.0,N/A,,Clear,300,2012-12-04 20:55:00
3:15 PM,28.4,8.6,43,30.04,10.0,NW,13.8,20.7,N/A,,Clear,310,2012-12-04 21:15:00
3:35 PM,26.6,8.6,47,30.05,10.0,NW,12.7,19.6,N/A,,Clear,310,2012-12-04 21:35:00
3:55 PM,26.6,6.8,43,30.07,10.0,WNW,19.6,26.5,N/A,,Clear,300,2012-12-04 21:55:00
4:15 PM,24.8,6.8,46,30.09,10.0,WNW,17.3,26.5,N/A,,Clear,300,2012-12-04 22:15:00
4:35 PM,23.0,8.6,54,30.10,10.0,NW,16.1,24.2,N/A,,Clear,310,2012-12-04 22:35:00
4:55 PM,23.0,10.4,59,30.10,10.0,NW,11.5,21.9,N/A,,Clear,320,2012-12-04 22:55:00
5:15 PM,21.2,10.4,63,30.12,10.0,NW,17.3,23.0,N/A,,Scattered Clouds,310,2012-12-04 23:15:00
5:35 PM,21.2,10.4,63,30.13,10.0,NW,9.2,19.6,N/A,,Scattered Clouds,310,2012-12-04 23:35:00
5:55 PM,21.2,10.4,63,30.14,10.0,NW,15.0,21.9,N/A,,Scattered Clouds,320,2012-12-04 23:55:00
6:15 PM,23.0,10.4,59,30.15,10.0,NW,11.5,21.9,N/A,,Overcast,310,2012-12-05 00:15:00
6:35 PM,21.2,12.2,68,30.15,10.0,NW,13.8,23.0,N/A,Snow,Light Snow,310,2012-12-05 00:35:00
6:55 PM,23.0,12.2,63,30.16,10.0,NNW,10.4,18.4,N/A,Snow,Light Snow,340,2012-12-05 00:55:00
7:15 PM,21.2,14.0,74,30.17,10.0,NNW,15.0,24.2,N/A,Snow,Light Snow,330,2012-12-05 01:15:00
7:35 PM,21.2,12.2,68,30.18,10.0,NNW,11.5,19.6,N/A,Snow,Light Snow,340,2012-12-05 01:35:00
7:55 PM,21.2,12.2,68,30.18,5.0,NNW,13.8,20.7,N/A,Snow,Light Snow,330,2012-12-05 01:55:00
8:15 PM,21.2,12.2,68,30.20,10.0,NNW,16.1,24.2,N/A,Snow,Light Snow,330,2012-12-05 02:15:00
8:35 PM,21.2,14.0,74,30.20,5.0,NNW,11.5,-,N/A,Snow,Light Snow,330,2012-12-05 02:35:00
8:55 PM,21.2,14.0,74,30.21,7.0,NW,11.5,-,N/A,Snow,Light Snow,310,2012-12-05 02:55:00
9:15 PM,21.2,14.0,74,30.22,7.0,NW,10.4,16.1,N/A,Snow,Light Snow,320,2012-12-05 03:15:00
9:35 PM,21.2,14.0,74,30.22,10.0,NW,10.4,-,N/A,Snow,Light Snow,310,2012-12-05 03:35:00
9:55 PM,21.2,12.2,68,30.22,10.0,WNW,9.2,-,N/A,Snow,Light Snow,300,2012-12-05 03:55:00
10:15 PM,21.2,14.0,74,30.23,10.0,NW,10.4,-,N/A,Snow,Light Snow,310,2012-12-05 04:15:00
10:35 PM,21.2,14.0,74,30.23,10.0,NW,8.1,-,N/A,Snow,Light Snow,310,2012-12-05 04:35:00
10:55 PM,21.2,14.0,74,30.23,10.0,NW,8.1,-,N/A,Snow,Light Snow,320,2012-12-05 04:55:00
11:15 PM,21.2,14.0,74,30.24,10.0,NW,6.9,-,N/A,Snow,Light Snow,310,2012-12-05 05:15:00
11:35 PM,21.2,14.0,74,30.24,10.0,NW,6.9,-,N/A,Snow,Light Snow,320,2012-12-05 05:35:00
11:55 PM,21.2,14.0,74,30.26,10.0,WNW,4.6,-,N/A,Snow,Light Snow,290,2012-12-05 05:55:00